Location: Kelshall
(52.0000°N, 0.0500°W)
Time: 12:13:16
(UTC+00:00)

Okean 1 Rocket - Pass Details

Date: 17 January 2021
Orbit: 605 x 635 km, 82.5° (Epoch: 05 March)

Event Time Altitude Azimuth Distance (km) Brightness Sun altitude
Exits shadow 06:52:49 13° 296° (WNW) 1,822 4.8 -9.9°
Maximum altitude 06:53:12 13° 301° (WNW) 1,816 4.8 -9.9°
Drops below altitude 10° 06:55:24 10° 331° (NNW) 2,030 5.2 -9.5°
Sets 06:58:49 0° 358° (N) 2,939 6.3 -9.1°
